Back to catalog

COSMOS 2491 DEB

AlivePO
NORAD 57554·DEBRIS·🇷🇺 Russia

Launched Dec 25, 2013 from Plesetsk Cosmodrome

Loading…

Next Passes (next 24 hours)

TLE

AgingSource: Space-Track

Epoch: Sep 6, 2026, 07:29 UTC

1 57554U 13076AR  26249.31224050  .00000604  00000-0  38950-2 0  9990
2 57554  82.4812 106.2697 0025311  29.3905 330.8596 12.50203180151692

Track COSMOS 2491 DEB in real time with AllMySat

Download on the App Store